TimeMST,TemperatureF,Dew PointF,Humidity,Sea Level PressureIn,VisibilityMPH,Wind Direction,Wind SpeedMPH,Gust SpeedMPH,PrecipitationIn,Events,Conditions,WindDirDegrees,DateUTC
12:51 AM,53.1,6.1,15,29.83,10.0,SE,4.6,-,N/A,,Clear,140,2014-04-01 07:51:00
1:51 AM,50.0,8.1,18,29.83,10.0,Calm,Calm,-,N/A,,Clear,0,2014-04-01 08:51:00
2:51 AM,48.0,8.1,20,29.83,10.0,ENE,5.8,-,N/A,,Clear,70,2014-04-01 09:51:00
3:51 AM,48.0,9.0,21,29.81,10.0,ENE,6.9,-,N/A,,Clear,70,2014-04-01 10:51:00
4:51 AM,46.9,10.0,22,29.82,10.0,Calm,Calm,-,N/A,,Clear,0,2014-04-01 11:51:00
5:51 AM,45.0,10.9,25,29.83,10.0,Calm,Calm,-,N/A,,Clear,0,2014-04-01 12:51:00
6:51 AM,48.9,12.9,24,29.83,10.0,East,5.8,-,N/A,,Clear,100,2014-04-01 13:51:00
7:51 AM,57.9,15.1,19,29.83,10.0,SSE,4.6,-,N/A,,Clear,160,2014-04-01 14:51:00
8:51 AM,64.9,14.0,14,29.83,10.0,ESE,4.6,-,N/A,,Clear,110,2014-04-01 15:51:00
9:51 AM,69.1,9.0,10,29.82,10.0,SSE,3.5,-,N/A,,Clear,160,2014-04-01 16:51:00
10:51 AM,73.0,7.0,8,29.81,10.0,North,-9999.0,-,N/A,,Clear,0,2014-04-01 17:51:00
11:51 AM,77.0,1.9,5,29.78,10.0,NW,6.9,-,N/A,,Clear,310,2014-04-01 18:51:00
12:51 PM,81.0,-6.0,4,29.74,10.0,West,20.7,26.5,N/A,,Clear,270,2014-04-01 19:51:00
1:51 PM,81.0,-2.0,4,29.71,10.0,WNW,18.4,32.2,N/A,,Clear,290,2014-04-01 20:51:00
2:51 PM,82.0,-2.0,4,29.70,10.0,West,23.0,32.2,N/A,,Clear,270,2014-04-01 21:51:00
3:51 PM,80.1,-2.9,4,29.69,10.0,West,20.7,35.7,N/A,,Clear,270,2014-04-01 22:51:00
4:51 PM,79.0,-2.9,4,29.70,10.0,West,23.0,29.9,N/A,,Clear,260,2014-04-01 23:51:00
5:51 PM,77.0,1.0,5,29.70,10.0,West,17.3,-,N/A,,Clear,260,2014-04-02 00:51:00
6:51 PM,72.0,1.0,6,29.71,10.0,West,11.5,-,N/A,,Clear,260,2014-04-02 01:51:00
7:51 PM,69.1,3.0,7,29.72,10.0,West,11.5,-,N/A,,Clear,280,2014-04-02 02:51:00
8:51 PM,66.9,1.9,8,29.72,10.0,WNW,13.8,-,N/A,,Clear,290,2014-04-02 03:51:00
9:51 PM,64.0,8.1,11,29.72,10.0,NW,13.8,-,N/A,,Clear,310,2014-04-02 04:51:00
10:51 PM,63.0,12.0,14,29.72,10.0,NW,11.5,-,N/A,,Clear,320,2014-04-02 05:51:00
11:51 PM,62.1,12.9,15,29.71,10.0,NW,17.3,-,N/A,,Clear,320,2014-04-02 06:51:00